This is the latest recevied weather packets stored in our database for station/object ZL1CTS-13. If no packets are shown the sender has not sent any weather packets the latest 10 day(s).
| Time | Temp. | Humidity | Pressure | Rain* | Wind** | Luminosity | Snow |
|---|---|---|---|---|---|---|---|
| 1777697404 | 20° C | 63% | 1023.4 hPa | 0 mm | - | - | - |
| 1777696803 | 20.56° C | 63% | 1023.3 hPa | 0 mm | - | - | - |
| 1777696204 | 20.56° C | 62% | 1023.2 hPa | 0 mm | - | - | - |
| 1777695603 | 20.56° C | 60% | 1023.3 hPa | 0 mm | - | - | - |
| 1777695004 | 21.11° C | 59% | 1023.3 hPa | 0 mm | - | - | - |
| 1777694404 | 20.56° C | 59% | 1023.4 hPa | 0 mm | - | - | - |
| 1777693804 | 20.56° C | 61% | 1023.5 hPa | 0 mm | - | - | - |
| 1777693204 | 20.56° C | 58% | 1023.5 hPa | 0 mm | - | - | - |
| 1777692604 | 21.67° C | 59% | 1023.5 hPa | 0 mm | - | - | - |
| 1777692004 | 21.11° C | 60% | 1023.7 hPa | 0 mm | - | - | - |
| 1777691404 | 21.11° C | 59% | 1023.7 hPa | 0 mm | - | - | - |
| 1777690805 | 21.11° C | 59% | 1023.8 hPa | 0 mm | - | - | - |
| 1777690204 | 20.56° C | 61% | 1023.8 hPa | 0 mm | - | - | - |
| 1777689603 | 20.56° C | 61% | 1023.9 hPa | 0 mm | - | - | - |
| 1777689007 | 20.56° C | 60% | 1023.9 hPa | 0 mm | - | - | - |
| 1777688406 | 20.56° C | 60% | 1024 hPa | 0 mm | - | - | - |
| 1777687804 | 20.56° C | 60% | 1024 hPa | 0 mm | - | - | - |
| 1777687204 | 20.56° C | 60% | 1024.2 hPa | 0 mm | - | - | - |
| 1777686604 | 20.56° C | 60% | 1024.1 hPa | 0 mm | - | - | - |
| 1777686004 | 20.56° C | 60% | 1024.3 hPa | 0 mm | - | - | - |
| 1777685404 | 20.56° C | 60% | 1024.5 hPa | 0 mm | - | - | - |
| 1777684804 | 20° C | 57% | 1024.4 hPa | 0 mm | - | - | - |
| 1777684204 | 21.11° C | 56% | 1024.5 hPa | 0 mm | - | - | - |
| 1777683604 | 21.11° C | 55% | 1024.6 hPa | 0 mm | - | - | - |
| 1777683004 | 21.11° C | 53% | 1024.8 hPa | 0 mm | - | - | - |
* Rain latest hour (hover to see other rain measurements)
** Current wind speed in m/s (hover to see current wind gust speed)